Location: Godiavel Galaoual
(15.2485°N, 12.6604°W)
Time: 01:32:22
(UTC+00:00)

Explorer 7 - Pass Details

Date: 22 June 2021
Orbit: 484 x 676 km, 50.3° (Epoch: 29 July)

Event Time Altitude Azimuth Distance (km) Brightness Sun altitude
Rises 05:07:43 0° 317° (NW) 2,801 10.3 -16.7°
Reaches altitude 10° 05:10:04 10° 314° (NW) 1,866 9.4 -16.2°
Maximum altitude 05:14:15 65° 233° (SW) 599 6.7 -15.3°
Drops below altitude 10° 05:18:12 10° 151° (SSE) 1,750 9.4 -14.5°
Sets 05:20:21 0° 148° (SSE) 2,610 10.3 -14.0°
